When you browse on this site, cookies collect data to enhance your experience and personalize the content and advertising you see.
Visit our Privacy Policy to learn more. By continuing to use the site, you agree to this use of cookies and data.
  • In Hungary
  • List of Countries
  • For 7 days
  • Water Temperature
  • Weather Map
  • News
  • Weather Widgets
  • user-avatar
    Login

    Hourly Weather Edinburg

    Today, 18 November, Monday

    Time Temperature Precipitation Wind Pressure Humidity
    00:00 +20°C° 0 mm 2 mps 759 mmHg 78%
    01:00 +19°C° 0 mm 2 mps 759 mmHg 76%
    02:00 +19°C° 0 mm 2 mps 759 mmHg 75%
    03:00 +18°C° 0 mm 2 mps 759 mmHg 75%
    04:00 +18°C° 0 mm 3 mps 759 mmHg 75%
    05:00 +17°C° 0 mm 3 mps 759 mmHg 75%
    06:00 +18°C° 0 mm 3 mps 759 mmHg 74%
    07:00 +19°C° 0 mm 3 mps 759 mmHg 73%
    08:00 +20°C° 0 mm 3 mps 760 mmHg 72%
    09:00 +21°C° 0 mm 3 mps 759 mmHg 67%
    10:00 +24°C° 0 mm 2 mps 759 mmHg 63%
    11:00 +25°C° 0 mm 2 mps 759 mmHg 58%
    12:00 +26°C° 0 mm 2 mps 758 mmHg 54%
    13:00 +26°C° 0 mm 2 mps 757 mmHg 51%
    14:00 +27°C° 0 mm 1 mps 757 mmHg 47%
    15:00 +26°C° 0 mm 1 mps 757 mmHg 51%
    16:00 +25°C° 0 mm 1 mps 757 mmHg 56%
    17:00 +24°C° 0 mm 1 mps 757 mmHg 60%
    18:00 +24°C° 0 mm 2 mps 757 mmHg 66%
    19:00 +23°C° 0 mm 2 mps 757 mmHg 73%
    20:00 +21°C° 0 mm 3 mps 758 mmHg 79%
    21:00 +21°C° 0 mm 3 mps 758 mmHg 80%
    22:00 +20°C° 0 mm 3 mps 758 mmHg 81%
    23:00 +20°C° 0 mm 2 mps 758 mmHg 82%

    Tomorrow, 19 November, Tuesday

    Time Temperature Precipitation Wind Pressure Humidity
    00:00 +20°C° 0 mm 2 mps 757 mmHg 82%
    01:00 +19°C° 0 mm 2 mps 757 mmHg 81%
    02:00 +19°C° 0 mm 2 mps 757 mmHg 80%
    03:00 +19°C° 0 mm 2 mps 757 mmHg 80%
    04:00 +19°C° 0 mm 2 mps 757 mmHg 80%
    05:00 +18°C° 0 mm 2 mps 758 mmHg 79%
    06:00 +20°C° 0 mm 2 mps 758 mmHg 74%
    07:00 +21°C° 0 mm 2 mps 758 mmHg 69%
    08:00 +22°C° 0 mm 3 mps 759 mmHg 64%
    09:00 +24°C° 0 mm 3 mps 758 mmHg 59%
    10:00 +26°C° 0 mm 3 mps 758 mmHg 53%
    11:00 +28°C° 0 mm 4 mps 758 mmHg 47%
    12:00 +28°C° 0 mm 4 mps 757 mmHg 47%
    13:00 +29°C° 0 mm 4 mps 757 mmHg 46%
    14:00 +29°C° 0 mm 4 mps 756 mmHg 45%
    15:00 +28°C° 0 mm 4 mps 756 mmHg 50%
    16:00 +27°C° 0 mm 4 mps 756 mmHg 55%
    17:00 +25°C° 0 mm 4 mps 756 mmHg 61%
    18:00 +25°C° 0 mm 4 mps 757 mmHg 67%
    19:00 +23°C° 0 mm 4 mps 757 mmHg 73%
    20:00 +23°C° 0 mm 4 mps 757 mmHg 80%
    21:00 +23°C° 0 mm 5 mps 757 mmHg 81%
    22:00 +23°C° 0 mm 5 mps 757 mmHg 83%
    23:00 +23°C° 0 mm 5 mps 756 mmHg 85%

    Day after tomorrow, 20 November, Wednesday

    Time Temperature Precipitation Wind Pressure Humidity
    00:00 +22°C° 0 mm 5 mps 756 mmHg 84%
    01:00 +22°C° 0 mm 5 mps 756 mmHg 84%
    02:00 +22°C° 0 mm 5 mps 756 mmHg 83%
    03:00 +22°C° 0 mm 6 mps 756 mmHg 82%
    04:00 +22°C° 0 mm 6 mps 756 mmHg 81%
    05:00 +22°C° 0 mm 6 mps 756 mmHg 80%
    06:00 +23°C° 0 mm 7 mps 756 mmHg 76%
    07:00 +24°C° 0 mm 8 mps 757 mmHg 72%
    08:00 +26°C° 0 mm 9 mps 757 mmHg 67%
    09:00 +27°C° 0 mm 9 mps 756 mmHg 64%
    10:00 +28°C° 0 mm 9 mps 756 mmHg 61%
    11:00 +29°C° 0 mm 9 mps 756 mmHg 58%
    12:00 +28°C° 0 mm 9 mps 755 mmHg 58%
    13:00 +28°C° 0 mm 9 mps 755 mmHg 58%
    14:00 +28°C° 0 mm 9 mps 754 mmHg 58%
    15:00 +28°C° 0 mm 9 mps 754 mmHg 61%
    16:00 +27°C° 0 mm 8 mps 755 mmHg 64%
    17:00 +26°C° 0 mm 8 mps 755 mmHg 67%
    18:00 +26°C° 0 mm 7 mps 755 mmHg 70%
    19:00 +24°C° 0 mm 7 mps 756 mmHg 72%
    20:00 +24°C° 0 mm 7 mps 756 mmHg 74%
    21:00 +24°C° 0 mm 7 mps 756 mmHg 75%
    22:00 +24°C° 0 mm 7 mps 756 mmHg 75%
    23:00 +24°C° 0 mm 7 mps 756 mmHg 76%

    21 November, Thursday

    Time Temperature Precipitation Wind Pressure Humidity
    00:00 +24°C° 0 mm 7 mps 756 mmHg 76%
    01:00 +23°C° 0 mm 7 mps 755 mmHg 76%
    02:00 +23°C° 0 mm 7 mps 755 mmHg 76%
    03:00 +23°C° 0 mm 6 mps 755 mmHg 78%
    04:00 +23°C° 0 mm 6 mps 755 mmHg 80%
    05:00 +23°C° 0 mm 6 mps 756 mmHg 82%
    06:00 +24°C° 0 mm 6 mps 756 mmHg 78%
    07:00 +26°C° 0 mm 7 mps 756 mmHg 75%
    08:00 +27°C° 0 mm 8 mps 756 mmHg 71%
    09:00 +28°C° 0 mm 8 mps 756 mmHg 68%
    10:00 +28°C° 0 mm 8 mps 756 mmHg 64%
    11:00 +29°C° 0 mm 8 mps 755 mmHg 61%
    12:00 +29°C° 0 mm 8 mps 755 mmHg 62%
    13:00 +29°C° 0 mm 8 mps 754 mmHg 62%
    14:00 +29°C° 0 mm 8 mps 753 mmHg 63%
    15:00 +28°C° 0 mm 7 mps 754 mmHg 65%
    16:00 +27°C° 0 mm 6 mps 754 mmHg 67%
    17:00 +27°C° 0 mm 6 mps 754 mmHg 70%
    18:00 +26°C° 0 mm 6 mps 754 mmHg 73%
    19:00 +26°C° 0 mm 6 mps 755 mmHg 77%
    20:00 +26°C° 0 mm 6 mps 755 mmHg 80%
    21:00 +26°C° 0 mm 6 mps 755 mmHg 80%
    22:00 +24°C° 0 mm 6 mps 755 mmHg 80%
    23:00 +24°C° 0 mm 6 mps 755 mmHg 80%

    22 November, Friday

    Time Temperature Precipitation Wind Pressure Humidity
    00:00 +24°C° 0 mm 6 mps 755 mmHg 80%
    01:00 +25°C° 0 mm 5 mps 754 mmHg 80%
    02:00 +25°C° 0 mm 5 mps 754 mmHg 81%
    03:00 +25°C° 0 mm 4 mps 754 mmHg 82%
    04:00 +23°C° 0 mm 4 mps 754 mmHg 84%
    05:00 +23°C° 0 mm 4 mps 754 mmHg 86%
    06:00 +25°C° 0 mm 4 mps 755 mmHg 82%
    07:00 +26°C° 0 mm 5 mps 756 mmHg 78%
    08:00 +27°C° 0 mm 5 mps 756 mmHg 73%
    09:00 +28°C° 0 mm 5 mps 756 mmHg 68%
    10:00 +29°C° 0 mm 4 mps 756 mmHg 63%
    11:00 +30°C° 0 mm 4 mps 757 mmHg 59%
    12:00 +29°C° 0 mm 5 mps 756 mmHg 61%
    13:00 +29°C° 0 mm 6 mps 756 mmHg 63%
    14:00 +28°C° 0 mm 8 mps 756 mmHg 65%
    15:00 +26°C° 0 mm 8 mps 757 mmHg 65%
    16:00 +23°C° 0 mm 8 mps 757 mmHg 65%
    17:00 +21°C° 0 mm 8 mps 758 mmHg 64%
    18:00 +20°C° 0 mm 8 mps 759 mmHg 63%
    19:00 +18°C° 0 mm 7 mps 760 mmHg 62%
    20:00 +18°C° 0 mm 7 mps 761 mmHg 61%
    21:00 +17°C° 0 mm 7 mps 762 mmHg 62%
    22:00 +16°C° 0 mm 6 mps 762 mmHg 64%
    23:00 +15°C° 0 mm 6 mps 762 mmHg 65%

    23 November, Saturday

    Time Temperature Precipitation Wind Pressure Humidity
    00:00 +14°C° 0 mm 6 mps 762 mmHg 64%
    01:00 +13°C° 0 mm 6 mps 763 mmHg 62%
    02:00 +13°C° 0 mm 6 mps 763 mmHg 60%
    03:00 +11°C° 0 mm 6 mps 763 mmHg 59%
    04:00 +11°C° 0 mm 6 mps 763 mmHg 58%
    05:00 +11°C° 0 mm 6 mps 764 mmHg 57%
    06:00 +11°C° 0 mm 6 mps 764 mmHg 55%
    07:00 +11°C° 0 mm 6 mps 765 mmHg 53%
    08:00 +11°C° 0 mm 6 mps 765 mmHg 52%
    09:00 +14°C° 0 mm 6 mps 765 mmHg 47%
    10:00 +15°C° 0 mm 6 mps 765 mmHg 42%
    11:00 +17°C° 0 mm 6 mps 765 mmHg 38%
    12:00 +19°C° 0 mm 5 mps 764 mmHg 36%
    13:00 +19°C° 0 mm 5 mps 763 mmHg 35%
    14:00 +20°C° 0 mm 4 mps 762 mmHg 34%
    15:00 +19°C° 0 mm 4 mps 762 mmHg 36%
    16:00 +18°C° 0 mm 3 mps 762 mmHg 38%
    17:00 +17°C° 0 mm 3 mps 762 mmHg 40%
    18:00 +16°C° 0 mm 2 mps 763 mmHg 41%
    19:00 +16°C° 0 mm 2 mps 763 mmHg 43%
    20:00 +15°C° 0 mm 2 mps 764 mmHg 45%
    21:00 +15°C° 0 mm 2 mps 763 mmHg 45%
    22:00 +14°C° 0 mm 2 mps 763 mmHg 45%
    23:00 +14°C° 0 mm 2 mps 763 mmHg 45%
    Show more